Race Results for
Bicycles Outback Fallout
Waco, TX
(Event Information)
View By:
Cross Country on 11/06/2011

Note: Ranking points are NOT upgrade points. An explanation of ranking points can be found here.


Men - SingleSpeed 2/3 - 0-99

 Place Points NameCity, StateTime USAC #BibTeam
1470.45Aaron Fanning   Waco, TX01:33:08 341622  671 
2Lee Freeman   01:34:00  332 
3Gary Rogers   01:39:33  669 Team Bike Lane
4519.65Andy Puentes   Spring, TX01:46:06 256594  668 Team Bike Lane
5Ken Parmerter   01:50:57  667 L.A.M.E.
6Jeff Herrin   01:51:38  666 MTP Bike Club
7568.85April Herring   The Woodlands, TX01:55:18 304663  670 Woodlands Cycling Club Race Team

Men - SingleSpeed

 Place Points NameCity, StateTime USAC #BibTeam
1389.70Peter Butt   Shreveport, LA02:11:56 345952  61 
2407.02Ian Fleming   Damon, TX02:18:19 264098  65 
3424.34Emil Ellis   Austin, TX02:21:34 217070  701 CYCLE PROGRESSION
4441.66Steve Etherton   Austin, TX02:23:03 271761  702 
5458.98Eric Fleming   Damon, TX02:25:14 264099  42 PARK PLACE DEALERSHIPS
6476.30Steven Thompson   Dallas, TX02:35:14 260029  700 

Men - Pro/Cat 1

 Place Points NameCity, StateTime USAC #BibTeam
1291.53Scott Henry   Austin, TX01:57:18 254  14 
2311.75Tyler Jewell   Austin, TX01:58:25 168914  13 
3331.97Tristan Uhl   Austin, TX02:00:43 168160  
4352.19Carson Lange   Lakeway, TX02:00:57 349134  Monkey Wrench Racing
5372.41Nicholas Garza   Flower Mound, TX02:03:12 218994  
6392.63Eric Hess   Austin, TX02:03:25 139534  11 Austinbikes/Revenant
7412.85Zach Carlson   Plano, TX02:04:20 277433  10 Matrix/RBM
8433.07Stewart Stafford   Austin, TX02:07:49 33754  
9453.29Dwayne Otto   Muenster, TX02:10:21 26937  
10473.51Sem Gallegos   El Paso, TX02:15:36 233198  Crazy Cat Cylery
11493.73Craig Kunz   Austin, TX02:20:32 124975  Team Bicycle Sport Shop
12513.95Chad Hardt   Austin, TX02:20:43 275429  71 
DNFRick Wetherald   Logan, UTDNF 188971  
DNFRobbie Robinette   Austin, TXDNF 96459  12 787 Racing

Men - Cat 1 - 15-18

 Place Points NameCity, StateTime USAC #BibTeam
1Westley Wrightson   Houston, TX02:42:01 290988  
2Sanford Morton   Austin, TX02:51:04 315782  41 
DNFMason Shea   Austin TxDNF 286395  40 Team Bicycle Sport Shop

Men - Cat 1 - 19-39

 Place Points NameCity, StateTime USAC #BibTeam
1359.51Casey Crosby   Austin, TX02:08:48 238357  64 
2367.81Manuel Gallegos   Austin, TX02:09:03 256128  53 Ozone Bikes
3376.11Eric Warden   Flower Mound, TX02:12:31 112874  63 Bicycles Inc.
4384.41Matthew Sappington   Round Rock, TX02:14:14 358266  68 Austin Bikes
5392.71Luke Yantis   Austin, TX02:14:35 291841  58 Team Bicycle Sport Shop
6401.01Art Exum   Benbrook, TX02:14:59 11120  67 ThinkFinance Racing
7Bret Crosby   02:23:18  60 
8417.61Brad Wimberly   Austin, TX02:24:37 178646  407 
9425.91Hirem Bruno   Spring, TX02:24:42 290110  51 Team Bike Lane/ WCCRT
10434.21Keevin Sharp   Amarillo, TX02:27:09 139617  56 Team Kordestani
11442.51Derek Delpero   Austin, TX02:31:15 283697  52 Team Bicycle Sport Shop
12450.81Shaun Bain   The Woodlands, TX02:32:34 255789  70 Texas Mountain Bike Racing Association
13459.11James Webb   Kyle, TX02:34:47 199834  57 Mafia Racing
14467.41Dustin Payne   Austin, TX02:39:42 248131  55 Ozone Bikes
15475.71Christopher Mayes   Liberty Hill, TX02:46:30 287031  69 Bicycle Sport Shop Mountain Bike Team
16484.01Domingo Gonzalez   San Marcos, TX02:49:51 232048  62 Ozone Bikes
DNFChris Lorance   Mckinney, TXDNF 291254  54 Cadence Cyclery
DNFTruss Cramer   Austin, TXDNF 274895  72 
DNFMike Aguayo   Spring, TXDNF 282793  66 The Woodlands Cycling Club

Men - Cat 1 - 40-49

 Place Points NameCity, StateTime USAC #BibTeam
1304.62Paul Sacket   Troy, TX01:23:40 243590  97 Tri-City Bicycles
2314.44Will Ross   Austin, TX01:24:49 40280  108 Team Cycle Progression
3324.26Terry Roach   Benbrook, TX01:24:53 244013  96 
4334.08Chris Carlson   Plano, TX01:24:56 6135  109 Matrix/RBM
5343.90Andrew Yates   Austin, TX01:26:08 39169  105 
6353.72Brian Zettner   San Antonio, TX01:26:28 186298  100 Team Sage Cycles
7363.54Jonathan Pattie   Austin, TX01:27:56 97614  113 
8373.36Fred Gray   Spring, TX01:28:05 187011  91 Team Bike Lane
9383.18Jeff Turner   Richardson, TX01:28:52 177873  112 PARK PLACE DEALERSHIPS
10393.00David MacKey   Magnolia, TX01:29:54 205028  93 Team Bike Lane
11402.82Darius Sampey   Baton Rouge, LA01:29:54 187769  98 (W)reckless Racing
12412.64Mick McDonald   Houston, TX01:30:21 23403  102 
13422.46John Madden   Houston, TX01:30:22 308953  94 Bike Barn Houston
14432.28Jack Gutweiler   Katy, TX01:31:44 167973  101 Bikesport/ION
15442.10Forist David Jr.   Converse, TX01:31:44 219282  104 
16451.92Vaughn Cavanaugh   Houston, TX01:33:25 194241  103 
17Mike Norman   01:34:05  107 
18471.56Jayson Webb   Fort Worth, TX01:34:30 37464  99 Broken Films Racing/Colonels Army
19481.38John Meegan   Cibolo, TX01:38:50 188387  95 Bike World Racing
20491.20Carlos Uranga   Irving, TX01:38:53 325182  106 PACC
DNSAndrew Kelsey   Flower MoundDNS 143516  92 
DNFJosue Ramos   Arlington, TXDNF 334912  111 

Men - Cat 1 - 50-59

 Place Points NameCity, StateTime USAC #BibTeam
1403.62Don Losawyer   Arlington, TX01:32:13 275430  122 Plano Athletic Cycling Club/PACC
2416.71Paul Forderhase   Austin, TX01:34:36 73177  121 Monkey Wrench Bicycle Repair
3429.80Robert Grant   Newfoundland, NJ01:35:30 13909  126 
4442.89Mark Pruitt   Fort Worth01:36:14 28786  127 
5455.98Spencer Jewell   Waco, TX01:38:40 110566  130 
6469.07Robert Coreale   Houston, TX01:38:58 7789  125 Bike Barn Houston
7482.16Mike Kolat   Lake Jackson, TX01:46:07 88139  128 
8495.25Ron Lieberman   Austin, TX01:49:25 21154  124 
DNFAlan Johnson   Dallas, TXDNF 157600  129 Matrix/RBM
DNFRoel Chapa   Arlington, TXDNF 291206  123 Bicycles Inc.

Men - Cat 1 - 60-99

 Place Points NameCity, StateTime USAC #BibTeam
1468.85Bill Moreman   Arlington, TX01:49:52 84650  141 Bicycles Inc
2481.35Mark Hargis   Grapevine, TX01:56:51 140813  147 Bicycles Inc.
3493.85Larry Pruitt   Houston, TX01:56:57 28785  143 
4506.35John Howell   Austin, TX01:59:12 169633  148 
5518.85Peter Bielinski   Houston, TX02:00:49 154163  146 
6531.35Bo Kral   Beaumont, TX02:04:02 129177  144 
7543.85Richard Suggs   Nacogdoches02:09:15 138422  149 Nacogdoches Bicycle Club
8556.35Desmond Rolf   La Marque, TX02:24:36 105398  145 Bikesport/ION
DNSFrederic Schmid   Waco, TXDNS 109257  142 

Men - Cat 2 - 15-18

 Place Points NameCity, StateTime USAC #BibTeam
1443.02Kendal Young   Mineral Wells, TX01:28:44 360780  303 
2461.93Thomas Hernandez   Denver, CO01:30:06 311058  302 
3480.84Damian Castillo   Austin01:30:21 289300  306 Southern Elite/Sun & Ski/ Austin PARD
4Boone Flynn   01:33:21  308 
5Cesar Tidrick   01:38:11  304 
6537.57Jonah Boatman   Austin, TX01:41:01 308456  301 Southern Elite/Sun & Ski Sports/Austin PARD
7James Procter   01:52:46  305 
DNFRobby Ketterhagen   Georgetown, TXDNF 337506  307 787 Racing

Men - Cat 2 - 19-34

 Place Points NameCity, StateTime USAC #BibTeam
1Justin Duncan   01:28:52  340 
2Emitt Tiner   01:29:28  330 
3483.42Andrew Cork   Waco, TX01:32:48 301724  327 Bicycles Outback Minions p/b Jubilee Mitsubishi
4Paul Loesch   01:34:00  338 
5Vincent Colvin   01:35:35  331 
6Gabriel Barr   01:37:42  325 
7512.30Matt Asay   Azle, TX01:38:34 315012  335 
8Robert Johnston   01:41:19  339 
9526.74Justin Moen   Flower Mound, TX01:43:30 303595  341 
10533.96Myles Overstreet   El Paso, TX01:41:30 349430  333 CYCLE PROGRESSION
11541.18Jacob Asay   Fort Worth, TX01:41:40 324352  334 
12Craig Chedsey   01:41:46  326 Lonestar Gravity
13Nicholas Elkins   01:44:43  328 DannyShane
14562.84Andrew Bui   Plano01:59:24 237489  336 
15570.06Brandon Jackson   Cypress, TX02:02:45 332080  329 Bikesport/ION
16577.28Brett Mueller   Fort Worth, TX02:06:24 193321  337 
DNSKurt Myers   DNS  342 

Men - Cat 2 - 35-44

 Place Points NameCity, StateTime USAC #BibTeam
1418.56Robert Via   Belton, TX01:29:21 306106  383 Tri City Bicycles
2John Librown   01:30:22  385 Team Bicycles Inc.
3428.76Tim Woodruff   Anna, TX01:30:38 168504  390 Cadence Cyclery
4Chad Plumlee   01:30:59  388 Cadence Cyclery
5438.96John Layne   Waco, TX01:31:28 297626  378 Bikeland Developmental Factory Team
6444.06Taury Patterson   Dallas, TX01:33:26 360255  403 
7Joe Gonzalez   01:34:05  402 
8454.26Jacob Richardson   Powder Springs, GA01:34:44 312128  389 
9Mike Herzog   01:34:57  399 
10464.46Marc Crozier   New Braunfels, TX01:35:01 178260  393 
11James Uphoff   01:35:12  397 
12474.66Jamie Bell   Arlington, TX01:37:11 303829  387 Bicycles Inc.
13479.76Forrest Streeter   Austin, TX01:38:05 337426  59 
14Ubaldo Castillo   01:38:17  400 Southern Elite/Sun & Ski/ Austin PARD
15489.96Marc Stanley   Herndon, VA01:38:47 141398  381 Team Sage Cycles
16Eddie Del Pino   01:40:29  396 
17500.16Rudy Guerrero   New Braunfels, TX01:40:31 124946  405 
18505.26Mark Fraske   Austin, TX01:41:15 194267  398 Team Bike Lane
19Adam Phillips   01:42:56  392 
20515.46Fred Vincent   Grapevine, TX01:46:28 235848  384 Chaparral Racing Team
21Raymund Codina   01:48:13  439 
22525.66Juan Carlos Flores   Lake City, CO01:48:26 162254  406 
23530.76Paul Burslem   Austin, TX01:49:20 348514  404 
24535.86Ben Stovall   Austin01:50:12 171518  394 
25540.96Jacobe Daniels   Red Oak, TX01:50:43 344504  375 VentureExpeditions.org
26546.06Scott McGowan   Canton, TX01:51:48 23494  401 
27Al Guzman Jr.   02:01:15  376 Ride Away Bikes/SATX
28556.26Jonathan Romo   Colleyville, TX02:12:20 168135  395 
DNSMike Ray   Nashville, TNDNS 97610  380 
DNFRobert Trujillo   DNF  382 EnviroInks / Bike Route
DNFDon Booker   Sachse, TXDNF 178241  391 

Men - Cat 2 - 45-99

 Place Points NameCity, StateTime USAC #BibTeam
1Steve Steinley   01:34:42  433 Team Bike Lane
2506.67Cory Faul   San Antonio, TX01:39:16 11322  427 Action Bikes
3Scott McCoy   01:39:48  445 
4512.67Chris Olson   Houston, TX01:41:34 26709  441 
5515.67John Worzel   Spring, TX01:42:18 325610  434 David's Cycles Racing
6518.67Russell Debarbieris   Sugar Land, TX01:45:31 115408  426 
7John Flynn   01:45:50  447 
8Mark Johnson   01:46:19  437 
9527.67Dennis Livingston   Red Oak, TX01:47:42 185910  430 VentureExpeditions.org
10530.67Anthony Chalupa   Newbraunfels, TX01:49:41 305086  442 Team Sage Cycles
11533.67Tore Munch-Ellingsen   Sugar Land, TX01:51:14 241117  431 
12Mark Haas   01:51:16  440 
13539.67Chris Koob   Round Rock, TX01:53:06 269160  435 Pirate Race Productions pb ALPHA
14542.67William Hoenig   Whitesboro, TX01:59:46 218990  443 
15Raol Flores   02:01:25  438 
16William Lamb   02:01:43  429 Hot Golf Inc
17Drew Tucker   02:22:08  446 
18554.67Bill Nelson   Reklaw, TX02:23:22 286856  436 
DNSStanley Ford   Crowley, TXDNS 286295  428 
DNSGlenn North   DNS  432 
DNFAnthony Arthur   DNF  425 Keine Angst
DNFBlake Roberts   Pflugerville, TXDNF 265914  444 Bicycle Sport Shop

Men - Cat 3 - 1-10

 Place Points NameCity, StateTime USAC #BibTeam
1473.25Noah Given   Kerrville, TX00:17:57 293234  502 Hill Country Bicycle Works
2481.98Aidan Bond   San Antonio, TX00:19:28 329966  501 Bike World Racing
3Hayden Otto   00:20:11  508 
4Bryce Gray   00:20:27  503 Team Bike Lane
5Dawson Layne   00:21:17  504 Bikeland Developmental Factory Team
6Joshua Mathis   00:23:34  512 
7Aidan Del Pino   00:24:48  509 
8534.36Michael Herzog   Somerville, NJ00:25:00 58883  511 
9Axel Flores   00:25:01  507 
10Hayden Putman   00:25:38  506 
11560.55Collin Turner   Baltimore, MD00:30:37 266408  513 
12Andrew Del Pino   00:31:35  510 
DNSMerrick McDonald   DNS  505 

Men - Cat 3 - 11-12

 Place Points NameCity, StateTime USAC #BibTeam
1539.76Mauricio Garcia   Miami, FL00:40:34 139327  528 
2549.81Logan Rainey   Waco, TX00:41:55 366961  526 Waco Bicycle Club
3Trevor Meegan   00:42:19  525 BikeWorld Racing
4Grant Spring   00:47:27  529 
5Nate Hatter   00:57:28  531 
6Adin Allison   01:10:46  530 

Men - Cat 3 - 13-14

 Place Points NameCity, StateTime USAC #BibTeam
1439.01Ethan Storm   Arlington, TX00:48:59 341794  558 
2445.83Luke Fleming   Damon, TX00:49:46 264100  43 
3Anna Mathis   00:50:32  546 
4Austin Wagner   00:51:40  547 
5466.29Parker Given   Kerrville, TX00:52:59 293228  551 Hill Country Bicycle Works
6473.11Colton Sacket   Troy, TX00:53:07 266357  553 Tri-City Bicycles
7479.93Fred 6 Vincent   Grapevine, TX00:55:43 329968  555 Chaparral Racing Team
8486.75Sam Vincent   Grapevine, TX00:59:46 329972  556 Chaparral Racing Team
9493.57Harrison Worzel   Spring, TX00:59:52 349314  557 David's Cycles
10500.39Ashton Dubroc   Sugar Land, TX01:01:23 344376  550 EnviroInks/Bike Route
11Dylan Layne   01:25:48  552 Bikeland Developmental Factory Team
12514.03Nash Lilly   Irving, TX01:31:50 341232  548 
DNFMaverick McDonald   DNF  559 
DNFHoyt Taylor   Austin, TXDNF 349712  554 Sun and Ski Sports/Austin PARD

Men - Cat 3 - 15-18

 Place Points NameCity, StateTime USAC #BibTeam
1Michael Hamric Jr   00:48:32  563 Bike Barn - Champions
2Cesar Yanez   00:55:01  565 
3Walker Cobbs   00:56:57  562 Waco Bicycle Club
4Zach Smitherman   00:57:00  564 RBM Matrix/Sachse High School
5580.00Dakota Burklund   San Marcos, TX01:00:00 296255  545 
6Winston Baxter-Harwell   01:26:53  560 
DNSCooper Cobbs   DNS  561 

Men - Cat 3 - 19-34

 Place Points NameCity, StateTime USAC #BibTeam
1491.62Mike Schwarzkopf   Conroe, TX00:48:36 326332  594 
2Michael Morgan   00:49:27  597 Planetary Cycles
3Logan Yelderman   00:49:30  591 
4502.96Jason Whitson   Austin, TX00:49:46 350662  590 
5Randall Alfano   00:49:51  575 
6John Thornburg   00:50:13  588 
7514.30Thomas Sebring   Round Rock, TX00:51:31 349588  587 
8518.08Jon-Howard Hanson   Keller, TX00:51:45 290868  580 
9Ryan Kota   00:52:21  582 
10525.64Ramon Fierros   Katy, TX00:53:32 339980  578 
11529.42Mark Rudich   Sugar Land, TX00:53:33 260073  585 
12Todd Ritz   00:55:16  600 
13John Elliott   00:55:36  596 
14Zach Tiner   00:55:44  599 
15Edward Trujillo   00:56:49  589 EnviroInks
16Chris Hammel   00:58:56  603 
17Miguel Cortez   00:59:49  602 
18555.88Jose Chan   Houston, TX01:00:09 295514  576 BNW Team
19Charles Coggins   01:00:25  577 Rice Alumni
20Raul Henao   01:02:20  581 
21Wes Aycock   01:05:41  601 
22Joel McFarlen   01:06:20  584 
23Travis McGarrah   01:06:22  607 
24Landon Lamb   01:06:27  583 
25Evan Schneider   01:07:21  586 
26Charlie Allred   01:07:59  605 
27Roger Fornelius   01:14:20  579 

Men - Cat 3 - 35-44

 Place Points NameCity, StateTime USAC #BibTeam
1515.23David Almanzan   Houston, TX00:48:07 300879  625 BNW Team
2Shae Tribout   00:50:27  634 Tri City Bicycles
3518.77Justin Joyner   Austin, TX00:51:55 339710  641 
4Paul Breemen   00:52:32  627 
5522.31Douglass Rauls   Austin, TX00:53:07 310474  642 
6524.08Jeff Boatman   Austin, TX00:53:31 300045  626 Southern Elite/Sun & Ski Sports/Austin PARD
7525.85Andrew Tidrick   Austin, TX00:53:54 351560  592 
8Jaime Canelos   00:54:30  628 
9529.39Clay Carroll   Southlake, TX00:55:10 6275  640 
10Alejandro Zendejas   00:55:22  598 
11532.93Nery Hernandez   Houston, TX00:55:23 306582  630 BNW Team
12Shawn Slack   00:56:08  632 
13Juan Jacob Garcia   00:57:17  639 
14Brett Allison   00:59:54  643 
15Jason Hartman   01:00:11  637 
16541.78John Proctor   Citrusheights, CA01:03:13 291347  636 
17543.55Jonathan Dubroc   Sugar Land, TX01:05:09 345660  629 EnviroInks/Bike Route
18545.32Andre Schneider   Nashville, TN01:08:14 164145  635 
19Thad Hairston   01:12:32  638 
20Michael Trujillo   01:19:40  595 
DNSSteven Thompson   DNS  633 
DNFKevin McDonald   DNF  631 

Men - Cat 3 - 45-99

 Place Points NameCity, StateTime USAC #BibTeam
1Stewart Kelly   00:48:51  662 
2543.12Michael Hamric   Spring, TX00:53:28 337270  726 Bike Barn - Champions
3546.24Mark Engelberg   Dallas, TX00:54:48 10810  664 
4549.36Phil Lewis   Georgetown, TX00:55:53 378497  663 
5Michael O'Toole   00:57:14  739 
6Fred Bazaldua   00:57:26  661 
7Karl Stoecklein   00:57:29  732 
8561.84Alexander Link   Dallas, TX00:57:52 190280  738 
9Duane Meyer   00:58:02  728 
10568.08Tom Ketterhagen   Georgetown, TX00:58:27 334056  735 
11571.20Joey Anzaldua   Bedford, TX00:58:28 311887  725 Bicycles Inc
12Jeff Jordan   00:59:20  604 
13Mitchell Johnson   01:02:51  733 
14Jim Gheida   01:05:00  734 
15583.68John Parten   Giddings, TX01:08:19 42968  730 Bicycles Inc
16586.80Martin Rojas   Cedar Park, TX01:10:59 197399  731 
17Benjie Emata   01:16:46  737 
DNSDan Marchok   Princeton, TXDNS 358548  727 
DNFSteve Oconnor   DNF  729 

Women - Pro/Cat 1 - 0-99

 Place Points NameCity, StateTime USAC #BibTeam
1388.44Lisa Uranga   Irving, TX02:28:03 325178  153 PACC
2431.07Jennifer Purcell   Austin, TX02:28:32 193628  172 Team Danbury Audi/Pedal and Pump
3473.70Claire McKenna   Austin, TX02:37:55 280868  155 
4Erin Lorance   01:44:32  151 Cadence Cyclery
5558.96Penny Ficker   Waco, TX01:44:39 337334  154 
DNFMelanie Etherton   Austin, TXDNF 271764  152 

Women - Cat 1 - 19-39

 Place Points NameCity, StateTime USAC #BibTeam
1Jennifer Taylor   Austin, TX01:47:25 337574  171 Team Bicycle Sport Shop

Women - Cat 1 - 40-49

 Place Points NameCity, StateTime USAC #BibTeam
1Pam Jackson   Garland, TX01:54:31 157028  487 Matrix/RBM
2Bonnie Bain   The Woodlands, TX02:14:35 269722  182 
DNFKarie Mueller   Amarillo, TXDNF 214338  181 Team Kordestani

Women - Cat 1 - 50-99

 Place Points NameCity, StateTime USAC #BibTeam
1Kathy Johnson   Dallas, TX02:13:32 157466  192 Matrix/RBM
2Janis Moreman   Arlington, TX02:14:08 84651  191 Bicycles Inc.

Women - Cat 2 - 19-39

 Place Points NameCity, StateTime USAC #BibTeam
1512.86Amy Parkinson   Austin, TX01:43:01 364747  483 
2523.73Sarah Ginsbach   Huntsville, TX01:44:55 319824  478 
3534.60Deanna Mueller   Fort Worth, TX01:50:19 361961  484 
4Xochilt Gonzales   01:53:28  481 
5556.34Amy Farley   Austin, TX01:56:34 303989  477 Team Bicycle Sport Shop
6Jazmine Sausanda   02:13:06  482 
7Fayza Elmostehi   02:20:18  476 Houston Fit AR

Women - Cat 2 - 40-99

 Place Points NameCity, StateTime USAC #BibTeam
1Joy Billeaud   01:57:10  479 
2Maria Hernandez   Reklaw, TX02:07:37 286821  486 

Women - Cat 3 - 1-10

 Place Points NameCity, StateTime USAC #BibTeam
1Emmaline Baxter-Harwell   00:23:19  740 Southern Elite/Sun & Ski/ Austin PARD

Women - Cat 3 - 11-12

 Place Points NameCity, StateTime USAC #BibTeam
1Emily Mathis   00:49:25  758 
2565.00Madeleine Bruno   Spring, TX00:55:37 329440  756 Team Bike Lane
3Kiara McDonald   01:07:52  757 
DNSClaire Boatman   DNS  755 

Women - Cat 3 - 13-14

 Place Points NameCity, StateTime USAC #BibTeam
1Leah Gheida   01:19:00  765 

Women - Cat 3 - 19-39

 Place Points NameCity, StateTime USAC #BibTeam
1540.00Melissa White   Clarkston, WA00:55:27 135008  778 
2546.25Susannah Bannon   San Marcos, TX00:59:41 357738  775 Bike Barn Texas
3Missy Hardeman   01:03:27  781 
4Christina Ricketts   01:04:52  779 
5Emmylou Layne   01:06:08  776 Bikeland Developmental Factory Team
6Angela Proudfit   01:09:03  782 
7Darlene Streeter   01:12:33  780 
8Anh Pham   01:29:34  783 
9Nicole Martinez   01:39:36  777 

Women - Cat 3 - 40-99

 Place Points NameCity, StateTime USAC #BibTeam
1Julia Hart   00:55:33  790 

Report missing or incorrect license numbers

Volkswagen
Bonk BreakerUSACDFSierra NevadaSpyShimano
UCI USA Cycling is the official governing body for all disciplines of competitive cycling in the United States. The 501c3, membership-based organization aims both to achieve sustained success in international cycling competition and to grow competitive cycling in America while delivering an exceptional customer experience.
View Children's Online Privacy Protection Policy
US Olympic Committee